This demonstration page uses our WeatherBlox Daily Observations layout. Learn more.

36.17497, -115.13722

Hourly Observations for July 22, 2015

Temp ( °F °C ) Dew Point ( °F °C ) Humidity (%) Winds ( mph kmh ) Pressure ( in mb ) Visibility ( mi km ) Precip ( " mm )
12:53 am 00:53 Clear 86 30 43 6.1 22 22 W 5 7 29.76 1008 10 16.0934 0 0
1:53 am 01:53 Clear 85 29.4 43 6.1 23 23 W 3 6 29.76 1008 10 16.0934 0 0
2:53 am 02:53 Clear 82 27.8 46 7.8 28 28 NNW 7 11 29.76 1008 10 16.0934 0 0
3:53 am 03:53 Clear 81 27.2 46 7.8 29 29 NNW 3 6 29.76 1008 10 16.0934 0 0
4:53 am 04:53 Clear 79 26.1 47 8.3 32 32 Calm 29.77 1008 10 16.0934 0 0
5:53 am 05:53 Sunny 79 26.1 49 9.4 35 35 NNW 5 7 29.78 1009 10 16.0934 0 0
6:53 am 06:53 Sunny 80 26.7 49 9.4 34 34 W 3 6 29.8 1009 10 16.0934 0 0
7:53 am 07:53 Sunny 84 28.9 50 10 31 31 Calm 29.8 1009 10 16.0934 0 0
8:53 am 08:53 Sunny 86 30 50 10 29 29 Calm 29.81 1009 10 16.0934 0 0
9:53 am 09:53 Sunny 90 32.2 49 9.4 24 24 SSE 7 11 29.8 1009 10 16.0934 0 0
10:53 am 10:53 Sunny 92 33.3 50 10 24 24 S 8 13 29.79 1009 10 16.0934 0 0
11:53 am 11:53 Sunny 95 35 50 10 22 22 VRB 7 11 29.77 1008 10 16.0934 0 0
12:53 pm 12:53 Partly Cloudy 96 35.6 49 9.4 20 20 S 10 17 29.75 1008 10 16.0934 0 0
1:14 pm 13:14 Mostly Cloudy 97 36 50 10 20 20 S 12 19 29.56 1001 10 16.0934 0 0
1:53 pm 13:53 Mostly Sunny 97 36.1 49 9.4 20 20 SSE 10 17 29.73 1007 10 16.0934 0 0
2:53 pm 14:53 Mostly Cloudy 98 36.7 47 8.3 17 17 S 16 26 29.7 1006 10 16.0934 0 0
3:53 pm 15:53 Sunny 98 36.7 42 5.6 15 15 S 16 26 29.69 1005 10 16.0934 0 0
4:53 pm 16:53 Sunny 100 37.8 44 6.7 15 15 SSW 14 22 29.67 1005 10 16.0934 0 0
5:53 pm 17:53 Sunny 99 37.2 43 6.1 15 15 S 17 28 29.66 1004 10 16.0934 0 0
6:53 pm 18:53 Sunny 96 35.6 42 5.6 15 15 SSW 16 26 29.67 1005 10 16.0934 0 0
7:53 pm 19:53 Sunny 95 35 41 5 15 15 SSW 15 24 29.68 1005 10 16.0934 0 0
8:53 pm 20:53 Clear 93 33.9 39 3.9 15 15 SSW 16 26 29.71 1006 10 16.0934 0 0
9:53 pm 21:53 Clear 91 32.8 38 3.3 15 15 SSW 12 19 29.75 1007 10 16.0934 0 0
10:53 pm 22:53 Clear 89 31.7 34 1.1 14 14 SSW 16 26 29.77 1008 10 16.0934 0 0
11:53 pm 23:53 Clear 88 31.1 33 0.6 14 14 SSW 14 22 29.78 1008 10 16.0934 0 0

Powered by AerisWeather